• MPC Preparation (Info)

  • MPEC 2013-P47 : 2013 PV13

    The following Minor Planet Electronic Circular may be linked-to from your own Web pages, but must not otherwise be redistributed electronically.

    A form allowing access to any MPEC is at the bottom of this page.


    Read MPEC 2013-P46 Read MPEC 2013-P48


    M.P.E.C. 2013-P47                                Issued 2013 Aug. 8, 19:49 UT
    
         The Minor Planet Electronic Circulars contain information on unusual
             minor planets and routine data on comets.  They are published
       on behalf of Commission 20 of the International Astronomical Union by the
              Minor Planet Center, Smithsonian Astrophysical Observatory,
                              Cambridge, MA 02138, U.S.A.
    
                 Prepared using the Tamkin Foundation Computer Network
    
                                  MPC@CFA.HARVARD.EDU
                URL https://www.minorplanetcenter.net/    ISSN 1523-6714
    
                                       2013 PV13
    
    Observations:
         K13P13V* C2013 08 06.98874 23 22 29.23 +10 00 59.3          18.2 VrEP047J75
         K13P13V  C2013 08 06.99854 23 22 33.67 +10 00 58.5          18.4 VrEP047J75
         K13P13V  C2013 08 07.00843 23 22 38.00 +10 00 59.1          18.3 VrEP047J75
         K13P13V  C2013 08 07.24239 23 24 26.21 +10 01 03.5          18.8 rNEP047I41
         K13P13V  C2013 08 07.27852 23 24 42.60 +10 01 04.9          18.9 rNEP047I41
         K13P13V  C2013 08 07.31702 23 25 00.01 +10 01 06.1          18.7 rNEP047I41
         K13P13V  C2013 08 07.91178 23 29 40.61 +10 00 40.3          18.6 RvEP047461
         K13P13V  C2013 08 07.91248 23 29 40.95 +10 00 40.0          18.2 RvEP047461
         K13P13V  C2013 08 07.91318 23 29 41.27 +10 00 40.2          18.6 RvEP047461
         K13P13V  C2013 08 07.91388 23 29 41.58 +10 00 40.3          18.4 RvEP047461
         K13P13V  C2013 08 07.91527 23 29 42.25 +10 00 40.3          18.2 RvEP047461
         K13P13V  C2013 08 07.91596 23 29 42.59 +10 00 40.2          18.4 RvEP047461
         K13P13V  C2013 08 07.91668 23 29 42.90 +10 00 40.2          18.3 RvEP047461
         K13P13V  C2013 08 07.91737 23 29 43.25 +10 00 40.3          18.4 RvEP047461
         K13P13V KC2013 08 07.92201 23 29 45.78 +10 00 36.4                qEP047J95
         K13P13V KC2013 08 07.92861 23 29 48.89 +10 00 36.6                qEP047J95
         K13P13V KC2013 08 07.92993 23 29 49.15 +10 00 43.6          18.4 RtEP047A79
         K13P13V KC2013 08 07.93371 23 29 51.30 +10 00 36.0          18.6 RqEP047J95
         K13P13V KC2013 08 07.93689 23 29 52.39 +10 00 43.5          18.2 RtEP047A79
         K13P13V KC2013 08 07.94070 23 29 54.14 +10 00 43.4          18.2 RtEP047A79
         K13P13V KC2013 08 07.94481 23 29 56.08 +10 00 43.3          18.6 RtEP047A79
         K13P13V  C2013 08 07.98880 23 30 17.09 +10 00 38.6          18.3 RrEP047106
         K13P13V  C2013 08 07.99084 23 30 18.09 +10 00 38.3          18.4 RrEP047106
         K13P13V  C2013 08 07.99288 23 30 18.98 +10 00 38.0          18.3 RrEP047106
         K13P13V  C2013 08 07.99494 23 30 20.02 +10 00 37.3          19.3 RrEP047106
         K13P13V KC2013 08 08.01035 23 30 27.22 +10 00 37.3                qEP047595
         K13P13V KC2013 08 08.01462 23 30 29.23 +10 00 37.0          18.6 VqEP047595
         K13P13V KC2013 08 08.33004 23 33 03.01 +10 00 18.1          19.0 RqEP047H36
         K13P13V KC2013 08 08.33644 23 33 06.07 +10 00 17.5          18.6 RqEP047H36
         K13P13V IC2013 08 08.35311 23 33 13.93 +10 00 15.8                qEP047H36
    
    Observer details:
    106 Crni Vrh.  Observer J. Skvarc.  0.60-m f/3.3 Deltagraph.
    461 University of Szeged, Piszkesteto Stn. (Konkoly).  Observer K. Sarneczky.
        0.60-m Schmidt + CCD.
    595 Farra d'Isonzo.  Observer E. Pettarin.  0.61-m f/4.0 reflector + CCD.
    A79 Zvezdno Obshtestvo Observatory, Plana.  Observers F. Fratev, M. Minkov.
        Measurer F. Fratev.  0.35-m f/3.46 reflector + CCD.
    H36 Sandlot Observatory, Scranton.  Observer G. Hug.  0.56-m reflector + CCD.
    I41 Palomar Mountain--PTF.  Observer P. Transient Factory.  Measurer
        A. Waszczak.  1.2-m f/2.44 Schmidt + CCD.
    J75 OAM Observatory, La Sagra.  Observers S. Sanchez, J. Nomen, M. Hurtado,
        J. A. Jaume, W. K. Y. Yeung, F. Serra, T. Valls, J. Hurtado.  0.45-m f/2.8
        reflector + CCD.
    J95 Great Shefford.  Observer P. Birtwhistle.  0.40-m f/6.0 Schmidt-Cassegrain
        + CCD.
    
    Orbital elements:
    2013 PV13                                                Earth MOID = 0.0567 AU
    Epoch 2013 Apr. 18.0 TT = JDT 2456400.5                 MPC
    M 323.32778              (2000.0)            P               Q
    n   0.23347325     Peri.  221.52858     +0.96901050     -0.22696089
    a   2.6120288      Node   151.15157     +0.24369722     +0.94287128
    e   0.6198106      Incl.   11.65905     -0.04037728     +0.24389034
    P   4.22           H   20.6           G   0.15           U   8
    Residuals in seconds of arc
    130806 J75  0.8-  0.8+    130807 461  0.1-  0.1+    130807 A79  1.3-  0.1+
    130806 J75  0.7+  0.5-    130807 461  0.1+  0.0     130807 106  0.1+  0.2+
    130807 J75  0.1-  0.4-    130807 461  0.3-  0.1+    130807 106  0.7+  0.1-
    130807 I41  0.1+  0.1-    130807 461  0.1+  0.2+    130807 106  0.3-  0.3-
    130807 I41  0.0   0.1-    130807 J95  0.5+  0.1+    130807 106  0.8+  0.9-
    130807 I41  0.3+  0.1-    130807 J95  0.1+  0.4+    130808 595  0.2-  0.1-
    130807 461  0.0   0.0     130807 A79  0.5-  0.1-    130808 595  0.1-  0.2-
    130807 461  0.1+  0.2-    130807 J95  0.1-  0.0     130808 H36  0.5+  0.1-
    130807 461  0.0   0.0     130807 A79  0.9-  0.0     130808 H36  0.6+  0.1-
    130807 461  0.3-  0.1+    130807 A79  1.5-  0.0     130808 H36  0.9-  0.4-
    
    Ephemeris:
    2013 PV13                a,e,i = 2.61, 0.62, 12                  q = 0.9931
    Date    TT    R. A. (2000) Decl.     Delta      r     Elong.  Phase     V
    2013 07 09    21 29 22.4 +05 51 20   0.4579  1.3842   136.2    30.5    20.9
    ...
    2013 07 24    22 09 20.1 +08 34 16   0.3077  1.2661   139.7    31.3    19.9
    ...
    2013 08 01    22 44 12.0 +09 39 24   0.2397  1.2074   139.5    33.1    19.3
    ...
    2013 08 07    23 22 32.5 +10 01 21   0.1961  1.1661   137.4    36.1    18.9
    2013 08 08    23 30 21.1 +10 01 05   0.1896  1.1595   136.8    36.8    18.8
    2013 08 09    23 38 38.4 +09 59 19   0.1833  1.1530   136.1    37.6    18.7
    ...
    2013 08 15    00 39 24.8 +09 06 06   0.1525  1.1158   129.4    44.6    18.5
    ...
    2013 08 23    02 26 17.8 +05 23 29   0.1348  1.0722   113.5    59.8    18.5
    ...
    2013 09 07    05 16 21.3 -03 23 31   0.1779  1.0138    86.9    83.0    19.8
    
    A. U. Tomatic                (C) Copyright 2013 MPC           M.P.E.C. 2013-P47
    

    Read MPEC 2013-P46 Read MPEC 2013-P48


    MPEC number:

    Enter an MPEC number in one of the following forms:

    • 1997-B01 (the full form)
    • J97B01 (the packed version of the full form)
    • B01 (the abbreviated form)